sat.trackr.live / text

‹ back to catalog

STARLINK-11589 [DTC]

NORAD 63311 · 2025-057E

PAYLOAD ACTIVE UNKNOWN

§ Identity

Operator
Country
US
Launch date
2025-03-18
Launch site
AFETR
Launch vehicle
Mass (kg)
RCS (m²)

Purposes: comms

External: N2YO · Heavens-Above · Gunter

§ Orbital elements

Epoch: 2026-05-24T10:07:24.846240Z

Period
91.66 min
Inclination
43.0003°
Eccentricity
0.0003352
Mean motion
15.70965135 rev/d
Perigee alt
353.9 km
Apogee alt
358.4 km
Semi-major
6,734.3 km
B*
1.9488e-3
RAAN
168.4602°
Arg perigee
266.2170°
Mean anomaly
93.8315°
Rev number
6,908

§ Raw data

STARLINK-11589 [DTC]1 63311U 25057E   26144.42181535  .00258936  00000+0  19488-2 0  99932 63311  43.0003 168.4602 0003352 266.2170  93.8315 15.70965135 69084

JSON: /api/v1/satellites/63311 · /tle

For live sub-satellite position, see the globe view (requires WebGL).

§ Visibility from observer

Set your observer location to see the next 7 days of passes ≥ 10°. The values pass through the URL so the page stays shareable.

No JS? Fill the form by hand. The geolocation button needs JavaScript.